User: anonymous   Login
Location: *
(49.0044°N, 9.5056°E)
Time: 18:09:03
(UTC+00:00)
Language:

RESURS DK-1 - Orbit

View from above orbital plane
View from above orbital plane
View from above satellite
View from above satellite

Ground track
Ground track

The orbit data is extracted from the following two-line orbital elements,

1 29228U 06021A   19325.23974745  .00000071  00000-0  12637-4 0  9994
2 29228  69.9361   0.5811 0002335  21.8656 338.2603 15.02485463741325
Epoch (UTC): 21 November 2019 05:45:14
Eccentricity: 0.0002335
inclination: 69.9361°
perigee height: 557 km
apogee height: 561 km
right ascension of ascending node: 0.5811°
argument of perigee: 21.8656°
revolutions per day: 15.02485463
mean anomaly at epoch: 338.2603°
orbit number at epoch: 74132

The dashed part of the orbit path shows where the satellite is in the earth's shadow,  

DLR